Pian Rosa, Italy

3:02 AM CEST on April 28, 2017 (GMT +0200)
Pian Rosa

Weather History for LIMH - January, 2013

Change the Weather History Date:

Friday, January 4, 2013

  Actual Average Record
Temperature  
Mean Temperature 20 °F -  
Max Temperature 23 °F 17 °F 26 °F (1999)
Min Temperature 17 °F 6 °F -2 °F (1997)
Degree Days  
Heating Degree Days 45    
Moisture  
Dew Point 3 °F    
Average Humidity 43    
Maximum Humidity 58    
Minimum Humidity 14    
Precipitation  
Precipitation 0.00 in - - ()
Sea Level Pressure  
Sea Level Pressure 30.49 in    
Wind  
Wind Speed 33 mph ()    
Max Wind Speed 44 mph    
Max Gust Speed -    
Visibility 6.2 miles    
Events Snow    
Averages and records for this station are not official NWS values.
T = Trace of Precipitation, MM = Missing Value Source: Averaged Metar Reports

Daily Weather History Graph

Daily Weather History Graph

Search for Another Location

Airport or City:

Trip Planner

Search our weather history database for the weather conditions in past years. The results will help you decide how hot, cold, wet, or windy it might be!

Date:

Astronomy

Jan. 04, 2013 Rise Set
Actual Time 8:10 AM CET 4:57 PM CET
Civil Twilight 7:36 AM CET 5:32 PM CET
Nautical Twilight 6:58 AM CET 6:09 PM CET
Astronomical Twilight 6:22 AM CET 6:45 PM CET
Moon No Moon Rise 11:20 AM CET (1/4)
Length of Visible Light 9h 55m
Length of Day
8h 47m
Waning Gibbous, 58% of the Moon is Illuminated
Jan 4
Waning Gibbous
Jan 5
Last Quarter
Jan 11
New
Jan 19
First Quarter
Jan 27
Full

Hourly Weather History & Observations

Time (CET) Temp. Windchill Dew Point Humidity Pressure Visibility Wind Dir Wind Speed Gust Speed Precip Events Conditions
12:55 AM 21.2 °F 2.2 °F 5.0 °F 50% 30.54 in - ENE 33.4 mph - N/A   Clear
1:55 AM 19.4 °F -0.0 °F 1.4 °F 46% 30.54 in - ENE 32.2 mph - N/A   Clear
2:55 AM 19.4 °F 0.2 °F 3.2 °F 49% 30.54 in - NE 31.1 mph - N/A   Clear
3:55 AM 19.4 °F -1.1 °F 3.2 °F 49% 30.54 in - NE 36.8 mph - N/A   Clear
4:00 AM 19 °F - 4 °F 36%  in 6 mi NE 36.8 mph - -  
4:55 AM 19.4 °F -0.3 °F 3.2 °F 49% 30.51 in - NE 33.4 mph - N/A   Clear
5:55 AM 19.4 °F -0.6 °F 5.0 °F 54% 30.48 in - NE 34.5 mph - N/A   Clear
6:55 AM 17.6 °F -3.3 °F 5.0 °F 58% 30.51 in - ENE 35.7 mph - N/A   Clear
7:00 AM 17 °F - 5 °F 45%  in 7 mi ENE 35.7 mph - -  
8:55 AM 21.2 °F 0.1 °F 5.0 °F 50% 30.51 in - ENE 43.7 mph - N/A   Clear
9:55 AM 21.2 °F 0.1 °F 3.2 °F 46% 30.51 in - ENE 43.7 mph - N/A   Clear
10:00 AM 20 °F - 3 °F 33%  in 37 mi ENE 43.7 mph - -   Clear
10:55 AM 21.2 °F 0.1 °F 3.2 °F 46% 30.51 in 6.2 mi ENE 43.7 mph - N/A Snow Low Drifting Snow
11:55 AM 21.2 °F 0.5 °F -0.4 °F 39% 30.48 in 6.2 mi East 41.4 mph - N/A Snow Low Drifting Snow
12:55 PM 23.0 °F 4.6 °F 1.4 °F 39% 30.51 in - ENE 33.4 mph - N/A   Clear
1:55 PM 21.2 °F 2.7 °F 3.2 °F 46% 30.48 in - ENE 31.1 mph - N/A   Clear
2:55 PM 21.2 °F 1.9 °F -2.2 °F 36% 30.48 in - ENE 34.5 mph - N/A   Clear
3:55 PM 21.2 °F 1.2 °F -7.6 °F 28% 30.48 in 6.2 mi ENE 38.0 mph - N/A   Partly Cloudy
4:00 PM 22 °F - -7 °F 14%  in 37 mi ENE 38.0 mph - -   Scattered Clouds
4:55 PM 21.2 °F 1.2 °F 1.4 °F 42% 30.48 in - ENE 38.0 mph - N/A   Clear
5:55 PM 21.2 °F 1.7 °F 3.2 °F 46% 30.48 in - ENE 35.7 mph - N/A   Clear
6:55 PM 21.2 °F 1.4 °F 3.2 °F 46% 30.48 in - NE 36.8 mph - N/A   Clear
7:00 PM 21 °F - 3 °F 30%  in 6 mi NE 36.8 mph - -  
7:55 PM 19.4 °F -0.8 °F 5.0 °F 54% 30.48 in - ENE 35.7 mph - N/A   Clear
8:55 PM 21.2 °F 0.5 °F 8.6 °F 58% 30.45 in - ENE 41.4 mph - N/A   Clear
9:55 PM 21.2 °F 0.5 °F 1.4 °F 42% 30.45 in - ENE 41.4 mph - N/A   Clear
10:00 PM 20 °F - 2 °F 29%  in 6 mi ENE 41.4 mph - -   Clear
10:55 PM 21.2 °F 0.7 °F 3.2 °F 46% 30.45 in - ENE 40.3 mph - N/A   Clear
11:55 PM 21.2 °F 0.5 °F 6.8 °F 54% 30.42 in - ENE 41.4 mph - N/A   Clear